Content
SEND FEEDBACK

Daily
Averages
Monthly
Summary
United States of America

NAPERVILLE, ILLINOIS


Home > North America > United States > Illinois
Elevation: 687 feet     Latitude: 41 49N     Longitude: 088 04W

WEATHER
 
SELECT A DAY
Number of Records: 196,755;   Date Range: 1/1/95 - 9/16/14
 
SHARE

PRINT THIS DATA

[ ← Previous Day ]
WEATHER ALMANAC - MARCH 12, 2013
[ Next Day → ]
[ °C ]   °F
Weather ElementAverageHighLow
Temperature31.7 °F36 °F (3:51 pm)27 °F (11:51 pm)
Dewpoint26.1 °F28.9 °F (6:51 pm)19.9 °F (10:51 pm)
Humidity80.3 %93 % (4:41 am)66 % (10:51 am)
Barometer29.89 in30.01 in (11:51 pm)29.81 in (1:51 am)
Wind Speed15.1 mph24.2 mph (4:07 pm)
Wind Gust36.8 mph (4:07 pm)
Weather ElementAverage
Visibility7 mi
Wind DirectionW (266 °)

Weather ElementTotal
Precipitation0.06 in
Heating Degree Days33.5 (Base 65)
Averaged from 48 records on March 12, 2013
WEATHER CONDITIONS BREAKOUT
WIND DIRECTION BREAKOUT
WEATHER BY HOUR - MARCH 12, 2013
[ °C ]   °F
Local TimeTemperatureDewpointHumidityBarometerVisibilityWind DirectionWind SpeedGust SpeedPrecipitationEventsConditions
1:51 AM33.1 °F28.0 °F82 %29.81 in10.0 miWest (270°)8.1 mphOvercast
2:51 AM32.0 °F27.0 °F82 %29.82 in10.0 miWest (270°)15.0 mph21.9 mphOvercast
3:51 AM32.0 °F27.0 °F82 %29.83 in10.0 miWest (260°)12.7 mphOvercast
4:41 AM30.2 °F28.4 °F93 %29.82 in6.0 miWest (270°)10.4 mph0.01 inSnowLight Snow
4:47 AM30.2 °F28.4 °F93 %29.82 in3.0 miWest (270°)10.4 mph0.01 inSnowLight Snow
4:51 AM30.2 °F28.4 °F93 %29.83 in2.0 miWest (260°)12.7 mphSnowLight Snow
5:03 AM30.2 °F28.4 °F93 %29.83 in3.0 miWest (260°)9.2 mph0.01 inSnowLight Snow
5:29 AM30.2 °F28.4 °F93 %29.84 in2.0 miWest (260°)12.7 mph0.01 inSnowLight Snow
5:51 AM30.0 °F27.0 °F88 %29.87 in2.5 miWest (280°)10.4 mph0.02 inSnowLight Snow
5:59 AM30.2 °F26.6 °F86 %29.85 in4.0 miWest (260°)10.4 mph0.00 inSnowLight Snow
6:06 AM30.2 °F26.6 °F86 %29.85 in4.0 miWest (260°)9.2 mph0.00 inSnowLight Snow
6:39 AM28.4 °F26.6 °F93 %29.85 in6.0 miWest (270°)11.5 mph0.00 inOvercast
6:47 AM28.4 °F26.6 °F93 %29.85 in10.0 miWest (280°)10.4 mph0.00 inMostly Cloudy
6:51 AM30.0 °F26.1 °F85 %29.88 in10.0 miWest (270°)10.4 mph0.00 inMostly Cloudy
7:51 AM28.4 °F24.8 °F86 %29.88 in10.0 miWest (280°)12.7 mphOvercast
8:51 AM28.9 °F23.0 °F78 %29.91 in10.0 miWest (280°)13.8 mphMostly Cloudy
9:48 AM30.2 °F24.8 °F80 %29.88 in10.0 miWSW (250°)9.2 mphScattered Clouds
9:51 AM30.0 °F24.1 °F79 %29.91 in10.0 miWSW (240°)12.7 mphScattered Clouds
10:51 AM32.0 °F21.9 °F66 %29.91 in10.0 miWest (260°)16.1 mph23.0 mphScattered Clouds
11:51 AM33.1 °F24.1 °F70 %29.91 in10.0 miWest (260°)16.1 mph23.0 mphMostly Cloudy
12:51 PM34.0 °F25.0 °F70 %29.91 in10.0 miWSW (250°)17.3 mph25.3 mphMostly Cloudy
1:51 PM35.1 °F25.0 °F67 %29.91 in10.0 miWest (260°)16.1 mph23.0 mph0.00 inMostly Cloudy
2:51 PM34.0 °F25.0 °F70 %29.90 in10.0 miWest (280°)20.7 mph27.6 mph0.00 inSnowLight Snow
3:51 PM36.0 °F26.1 °F67 %29.90 in10.0 miWest (270°)18.4 mph25.3 mph0.00 inOvercast
4:07 PM35.6 °F26.6 °F70 %29.88 in4.0 miWest (260°)24.2 mph36.8 mph0.00 inSnowLight Snow
4:09 PM33.8 °F28.4 °F81 %29.89 in1.0 miWSW (250°)18.4 mph36.8 mph0.00 inSnowLight Snow
4:16 PM33.8 °F28.4 °F81 %29.89 in2.0 miWSW (250°)19.6 mph29.9 mph0.00 inSnowLight Snow
4:23 PM35.6 °F28.4 °F75 %29.88 in8.0 miWSW (250°)16.1 mph26.5 mph0.00 inSnowLight Snow
4:51 PM35.1 °F27.0 °F72 %29.91 in10.0 miWSW (250°)23.0 mph31.1 mph0.00 inMostly Cloudy
5:22 PM35.6 °F26.6 °F70 %29.89 in10.0 miWest (260°)18.4 mph29.9 mphMostly Cloudy
5:51 PM34.0 °F26.1 °F73 %29.91 in10.0 miWest (270°)18.4 mph25.3 mph0.00 inSnowLight Snow
6:00 PM33.8 °F26.6 °F75 %29.90 in3.0 miWSW (250°)18.4 mph26.5 mph0.00 inSnowLight Snow
6:02 PM32.0 °F28.4 °F87 %29.90 in2.0 miWSW (250°)16.1 mph26.5 mph0.00 inSnowLight Snow
6:11 PM32.0 °F28.4 °F87 %29.90 in5.0 miWest (260°)13.8 mph0.00 inSnowLight Snow
6:31 PM33.8 °F28.4 °F81 %29.89 in6.0 miWSW (250°)15.0 mph21.9 mph0.00 inSnowLight Snow
6:42 PM33.8 °F28.4 °F81 %29.89 in3.0 miWSW (250°)21.9 mph27.6 mph0.00 inSnowLight Snow
6:51 PM32.0 °F28.9 °F88 %29.92 in2.5 miWest (260°)13.8 mph26.5 mph0.00 inSnowLight Snow
6:59 PM32.0 °F28.4 °F87 %29.90 in4.0 miWest (260°)16.1 mph23.0 mph0.00 inSnowLight Snow
7:03 PM32.0 °F28.4 °F87 %29.90 in6.0 miWest (260°)17.3 mph23.0 mph0.00 inSnowLight Snow
7:11 PM32.0 °F28.4 °F87 %29.91 in6.0 miWest (280°)16.1 mph23.0 mph0.00 inSnowLight Snow
7:31 PM32.0 °F26.6 °F80 %29.91 in10.0 miWest (280°)13.8 mph0.00 inMostly Cloudy
7:38 PM30.2 °F24.8 °F80 %29.92 in7.0 miWest (280°)23.0 mph32.2 mph0.00 inSnowLight Snow
7:51 PM30.0 °F24.1 °F79 %29.95 in6.0 miWNW (290°)18.4 mph25.3 mph0.00 inSnowLight Snow
8:27 PM30.2 °F21.2 °F69 %29.94 in10.0 miWNW (290°)12.7 mph21.9 mph0.00 inOvercast
8:51 PM30.2 °F21.2 °F69 %29.95 in10.0 miWNW (300°)18.4 mph25.3 mphMostly Cloudy
9:51 PM28.0 °F21.0 °F75 %29.99 in10.0 miWNW (290°)15.0 mph23.0 mphOvercast
10:51 PM28.0 °F19.9 °F72 %30.00 in9.0 miWest (280°)17.3 mph24.2 mph0.00 inSnowLight Snow
11:51 PM27.0 °F19.9 °F75 %30.01 in10.0 miWest (280°)11.5 mph20.7 mph0.00 inSnowLight Snow
Hourly data recorded from KORD, located miles away from Naperville, Illinois







STORIES FROM OUR PARTNERS